When you browse on this site, cookies collect data to enhance your experience and personalize the content and advertising you see.
Visit our Privacy Policy to learn more. By continuing to use the site, you agree to this use of cookies and data.
  • In Austria
  • List of Countries
  • For 7 days
  • Water Temperature
  • Weather Map
  • News
  • Weather Widgets
  • user-avatar
    Login

    Hourly Weather Perth

    Today, 22 January, Wednesday

    Time Temperature Precipitation Wind Pressure Humidity
    00:00 +16°C° 0 mm 5 mps 759 mmHg 65%
    01:00 +15°C° 0 mm 5 mps 759 mmHg 68%
    02:00 +15°C° 0 mm 4 mps 759 mmHg 72%
    03:00 +14°C° 0 mm 4 mps 759 mmHg 73%
    04:00 +14°C° 0 mm 4 mps 760 mmHg 74%
    05:00 +13°C° 0 mm 3 mps 760 mmHg 76%
    06:00 +16°C° 0 mm 3 mps 760 mmHg 69%
    07:00 +17°C° 0 mm 3 mps 760 mmHg 63%
    08:00 +19°C° 0 mm 3 mps 761 mmHg 57%
    09:00 +20°C° 0 mm 4 mps 761 mmHg 54%
    10:00 +22°C° 0 mm 4 mps 760 mmHg 52%
    11:00 +23°C° 0 mm 5 mps 760 mmHg 50%
    12:00 +25°C° 0 mm 5 mps 760 mmHg 50%
    13:00 +24°C° 0 mm 6 mps 759 mmHg 51%
    14:00 +26°C° 0 mm 7 mps 759 mmHg 52%
    15:00 +24°C° 0 mm 7 mps 759 mmHg 54%
    16:00 +24°C° 0 mm 7 mps 759 mmHg 56%
    17:00 +23°C° 0 mm 7 mps 759 mmHg 59%
    18:00 +22°C° 0 mm 7 mps 759 mmHg 64%
    19:00 +21°C° 0 mm 6 mps 759 mmHg 69%
    20:00 +20°C° 0 mm 6 mps 759 mmHg 75%
    21:00 +20°C° 0 mm 5 mps 760 mmHg 76%
    22:00 +19°C° 0 mm 5 mps 760 mmHg 77%
    23:00 +19°C° 0 mm 4 mps 761 mmHg 78%

    Tomorrow, 23 January, Thursday

    Time Temperature Precipitation Wind Pressure Humidity
    00:00 +18°C° 0 mm 4 mps 760 mmHg 78%
    01:00 +18°C° 0 mm 4 mps 760 mmHg 78%
    02:00 +18°C° 0 mm 4 mps 760 mmHg 79%
    03:00 +17°C° 0 mm 3 mps 760 mmHg 80%
    04:00 +17°C° 0 mm 3 mps 760 mmHg 82%
    05:00 +17°C° 0 mm 2 mps 760 mmHg 83%
    06:00 +18°C° 0 mm 3 mps 761 mmHg 77%
    07:00 +20°C° 0 mm 3 mps 761 mmHg 71%
    08:00 +21°C° 0 mm 3 mps 761 mmHg 65%
    09:00 +24°C° 0 mm 3 mps 761 mmHg 58%
    10:00 +26°C° 0 mm 3 mps 761 mmHg 52%
    11:00 +28°C° 0 mm 3 mps 761 mmHg 45%
    12:00 +28°C° 0 mm 4 mps 760 mmHg 46%
    13:00 +29°C° 0 mm 5 mps 759 mmHg 46%
    14:00 +29°C° 0 mm 6 mps 759 mmHg 47%
    15:00 +28°C° 0 mm 6 mps 759 mmHg 49%
    16:00 +28°C° 0 mm 7 mps 759 mmHg 52%
    17:00 +27°C° 0 mm 7 mps 758 mmHg 55%
    18:00 +24°C° 0 mm 6 mps 759 mmHg 61%
    19:00 +23°C° 0 mm 5 mps 759 mmHg 67%
    20:00 +21°C° 0 mm 5 mps 759 mmHg 73%
    21:00 +21°C° 0 mm 4 mps 760 mmHg 72%
    22:00 +21°C° 0 mm 4 mps 760 mmHg 71%
    23:00 +20°C° 0 mm 3 mps 761 mmHg 71%

    Day after tomorrow, 24 January, Friday

    Time Temperature Precipitation Wind Pressure Humidity
    00:00 +20°C° 0 mm 3 mps 760 mmHg 67%
    01:00 +20°C° 0 mm 4 mps 760 mmHg 63%
    02:00 +20°C° 0 mm 4 mps 760 mmHg 59%
    03:00 +20°C° 0 mm 4 mps 760 mmHg 64%
    04:00 +19°C° 0 mm 3 mps 760 mmHg 69%
    05:00 +18°C° 0 mm 3 mps 761 mmHg 73%
    06:00 +20°C° 0 mm 3 mps 761 mmHg 69%
    07:00 +21°C° 0 mm 3 mps 761 mmHg 64%
    08:00 +22°C° 0 mm 3 mps 761 mmHg 59%
    09:00 +27°C° 0 mm 3 mps 761 mmHg 50%
    10:00 +30°C° 0 mm 2 mps 761 mmHg 41%
    11:00 +34°C° 0 mm 2 mps 761 mmHg 32%
    12:00 +34°C° 0 mm 3 mps 760 mmHg 32%
    13:00 +34°C° 0 mm 4 mps 759 mmHg 33%
    14:00 +34°C° 0 mm 6 mps 759 mmHg 33%
    15:00 +34°C° 0 mm 6 mps 759 mmHg 34%
    16:00 +33°C° 0 mm 6 mps 758 mmHg 35%
    17:00 +32°C° 0 mm 6 mps 758 mmHg 35%
    18:00 +29°C° 0 mm 6 mps 758 mmHg 41%
    19:00 +27°C° 0 mm 5 mps 759 mmHg 46%
    20:00 +25°C° 0 mm 5 mps 759 mmHg 51%
    21:00 +23°C° 0 mm 4 mps 759 mmHg 51%
    22:00 +24°C° 0 mm 3 mps 759 mmHg 50%
    23:00 +23°C° 0 mm 2 mps 759 mmHg 50%

    25 January, Saturday

    Time Temperature Precipitation Wind Pressure Humidity
    00:00 +23°C° 0 mm 2 mps 759 mmHg 51%
    01:00 +21°C° 0 mm 3 mps 759 mmHg 52%
    02:00 +21°C° 0 mm 3 mps 759 mmHg 54%
    03:00 +21°C° 0 mm 3 mps 759 mmHg 58%
    04:00 +20°C° 0 mm 2 mps 759 mmHg 63%
    05:00 +20°C° 0 mm 2 mps 759 mmHg 68%
    06:00 +23°C° 0 mm 2 mps 759 mmHg 62%
    07:00 +24°C° 0 mm 2 mps 759 mmHg 56%
    08:00 +26°C° 0 mm 2 mps 759 mmHg 50%
    09:00 +29°C° 0 mm 2 mps 759 mmHg 42%
    10:00 +32°C° 0 mm 2 mps 759 mmHg 35%
    11:00 +36°C° 0 mm 2 mps 758 mmHg 27%
    12:00 +36°C° 0 mm 3 mps 758 mmHg 27%
    13:00 +36°C° 0 mm 4 mps 757 mmHg 28%
    14:00 +36°C° 0 mm 5 mps 757 mmHg 28%
    15:00 +35°C° 0 mm 6 mps 756 mmHg 31%
    16:00 +34°C° 0 mm 6 mps 756 mmHg 34%
    17:00 +33°C° 0 mm 6 mps 756 mmHg 37%
    18:00 +30°C° 0 mm 5 mps 756 mmHg 44%
    19:00 +28°C° 0 mm 5 mps 757 mmHg 50%
    20:00 +26°C° 0 mm 4 mps 757 mmHg 57%
    21:00 +25°C° 0 mm 4 mps 757 mmHg 57%
    22:00 +25°C° 0 mm 3 mps 757 mmHg 57%
    23:00 +24°C° 0 mm 3 mps 758 mmHg 57%

    26 January, Sunday

    Time Temperature Precipitation Wind Pressure Humidity
    00:00 +24°C° 0 mm 3 mps 757 mmHg 60%
    01:00 +23°C° 0 mm 2 mps 757 mmHg 63%
    02:00 +21°C° 0 mm 2 mps 757 mmHg 67%
    03:00 +21°C° 0 mm 2 mps 757 mmHg 72%
    04:00 +20°C° 0 mm 2 mps 757 mmHg 76%
    05:00 +19°C° 0 mm 3 mps 757 mmHg 81%
    06:00 +20°C° 0 mm 2 mps 757 mmHg 75%
    07:00 +23°C° 0 mm 2 mps 757 mmHg 68%
    08:00 +24°C° 0 mm 2 mps 757 mmHg 62%
    09:00 +27°C° 0 mm 2 mps 757 mmHg 53%
    10:00 +30°C° 0 mm 3 mps 757 mmHg 44%
    11:00 +33°C° 0 mm 3 mps 757 mmHg 36%
    12:00 +33°C° 0 mm 4 mps 756 mmHg 37%
    13:00 +33°C° 0 mm 5 mps 756 mmHg 38%
    14:00 +33°C° 0 mm 6 mps 755 mmHg 40%
    15:00 +32°C° 0 mm 6 mps 755 mmHg 44%
    16:00 +30°C° 0 mm 6 mps 755 mmHg 47%
    17:00 +30°C° 0 mm 6 mps 755 mmHg 51%
    18:00 +28°C° 0 mm 6 mps 755 mmHg 58%
    19:00 +26°C° 0 mm 6 mps 756 mmHg 65%
    20:00 +23°C° 0 mm 5 mps 756 mmHg 72%
    21:00 +23°C° 0 mm 5 mps 757 mmHg 75%
    22:00 +22°C° 0 mm 5 mps 757 mmHg 78%
    23:00 +21°C° 0 mm 4 mps 758 mmHg 81%

    27 January, Monday

    Time Temperature Precipitation Wind Pressure Humidity
    00:00 +21°C° 0 mm 4 mps 758 mmHg 81%
    01:00 +21°C° 0 mm 4 mps 758 mmHg 81%
    02:00 +20°C° 0 mm 3 mps 757 mmHg 81%
    03:00 +20°C° 0 mm 3 mps 758 mmHg 82%
    04:00 +19°C° 0 mm 3 mps 758 mmHg 83%
    05:00 +19°C° 0 mm 3 mps 758 mmHg 84%
    06:00 +20°C° 0 mm 3 mps 759 mmHg 78%
    07:00 +21°C° 0 mm 3 mps 759 mmHg 72%
    08:00 +22°C° 0 mm 3 mps 760 mmHg 66%
    09:00 +26°C° 0 mm 3 mps 759 mmHg 57%
    10:00 +28°C° 0 mm 4 mps 759 mmHg 47%
    11:00 +30°C° 0 mm 4 mps 759 mmHg 38%
    12:00 +30°C° 0 mm 5 mps 759 mmHg 39%
    13:00 +32°C° 0 mm 6 mps 758 mmHg 39%
    14:00 +32°C° 0 mm 6 mps 757 mmHg 39%
    15:00 +30°C° 0 mm 6 mps 757 mmHg 43%
    16:00 +29°C° 0 mm 7 mps 757 mmHg 46%
    17:00 +28°C° 0 mm 7 mps 757 mmHg 49%
    18:00 +27°C° 0 mm 6 mps 757 mmHg 57%
    19:00 +24°C° 0 mm 6 mps 758 mmHg 65%
    20:00 +22°C° 0 mm 5 mps 758 mmHg 72%
    21:00 +22°C° 0 mm 5 mps 758 mmHg 74%
    22:00 +21°C° 0 mm 4 mps 759 mmHg 76%
    23:00 +21°C° 0 mm 4 mps 759 mmHg 78%
    Show more